Location: Oakley
(37.9974°N, 121.7125°W)
Time: 12:11:26
(UTC+00:00)

SKYMED 2 - Pass Details

Date: 13 February 2026
Orbit: 622 x 623 km, 97.9° (Epoch: 17 March)

Event Time Altitude Azimuth Distance (km) Brightness Sun altitude
Rises 13:14:15 0° 162° (SSE) 2,889 7.2 -21.2°
Reaches altitude 10° 13:16:26 10° 161° (SSE) 1,987 6.4 -20.8°
Maximum altitude 13:20:45 76° 76° (ENE) 648 3.7 -19.9°
Drops below altitude 10° 13:25:06 10° 351° (N) 2,001 6.1 -19.0°
Sets 13:27:18 0° 350° (N) 2,911 6.9 -18.6°
